LZ0VRC-10 Weather Reports


time (UTC)temp
C
wind
direction
speed
KPH
gust
KPH
rain 1hr
cm
rain 24hr
cm
rain mn
cm
humidity
%
barometer
mb
20260906050506 25 0.0 0.0 0.00 0.00 0.00 22 1022.1
20260906045006 24 0.0 0.0 0.00 0.00 0.00 21 1022.0
20260906043506 24 0.0 0.0 0.00 0.00 0.00 24 1021.8
20260906042006 23 0.0 0.0 0.00 0.00 0.00 27 1021.7
20260906040506 23 0.0 0.0 0.00 0.00 0.00 39 1021.3
20260906035006 22 0.0 0.0 0.00 0.00 0.00 40 1021.2
20260906033506 23 0.0 0.0 0.00 0.00 0.00 39 1021.0
20260906032006 23 0.0 0.0 0.00 0.00 0.00 38 1020.8
20260906030506 23 0.0 0.0 0.00 0.00 0.00 39 1020.5
20260906025006 24 0.0 0.0 0.00 0.00 0.00 39 1020.3
20260906023506 24 0.0 0.0 0.00 0.00 0.00 39 1020.0
20260906022006 24 0.0 0.0 0.00 0.00 0.00 40 1020.0
20260906020506 24 0.0 0.0 0.00 0.00 0.00 41 1020.0
20260906015007 24 0.0 0.0 0.00 0.00 0.00 41 1019.8
20260906013507 25 0.0 0.0 0.00 0.00 0.00 37 1019.6
20260906012007 25 0.0 0.0 0.00 0.00 0.00 36 1019.5
20260906010507 26 0.0 0.0 0.00 0.00 0.00 35 1019.5
20260906005007 26 0.0 0.0 0.00 0.00 0.00 35 1019.4
20260906003507 25 0.0 0.0 0.00 0.00 0.00 37 1019.4
20260906002007 25 0.0 0.0 0.00 0.00 0.00 38 1019.4
20260906000507 26 0.0 0.0 0.00 0.00 0.00 37 1019.4
20260905235007 26 0.0 0.0 0.00 0.00 0.00 37 1019.4
20260905233507 25 0.0 0.0 0.00 0.00 0.00 38 1019.3
20260905232007 25 0.0 0.0 0.00 0.00 0.00 38 1019.2
20260905230507 25 0.0 0.0 0.00 0.00 0.00 37 1019.0
20260905225007 25 0.0 0.0 0.00 0.00 0.00 36 1018.9
20260905223507 25 0.0 0.0 0.00 0.00 0.00 34 1018.8
20260905222007 24 0.0 0.0 0.00 0.00 0.00 34 1018.6
20260905220507 25 0.0 0.0 0.00 0.00 0.00 31 1018.0
20260905215007 25 0.0 0.0 0.00 0.00 0.00 31 1017.9
20260905213507 25 0.0 0.0 0.00 0.00 0.00 32 1017.6
20260905212007 26 0.0 0.0 0.00 0.00 0.00 30 1017.3
20260905210507 26 0.0 0.0 0.00 0.00 0.00 29 1017.0
20260905205007 26 0.0 0.0 0.00 0.00 0.00 28 1016.9
20260905203507 26 0.0 0.0 0.00 0.00 0.00 28 1016.9
20260905202007 26 0.0 0.0 0.00 0.00 0.00 28 1016.8
20260905200507 26 0.0 0.0 0.00 0.00 0.00 28 1016.7
20260905195007 27 0.0 0.0 0.00 0.00 0.00 27 1016.6
20260905193507 27 0.0 0.0 0.00 0.00 0.00 27 1016.4
20260905192007 27 0.0 0.0 0.00 0.00 0.00 27 1016.5
20260905190507 27 0.0 0.0 0.00 0.00 0.00 27 1016.5
20260905185007 27 0.0 0.0 0.00 0.00 0.00 26 1016.5
20260905183507 27 0.0 0.0 0.00 0.00 0.00 26 1016.4
20260905182007 27 0.0 0.0 0.00 0.00 0.00 26 1016.3
20260905180507 28 0.0 0.0 0.00 0.00 0.00 25 1016.2
20260905175007 28 0.0 0.0 0.00 0.00 0.00 25 1016.0
20260905173507 28 0.0 0.0 0.00 0.00 0.00 24 1015.9
20260905172007 29 0.0 0.0 0.00 0.00 0.00 24 1015.7
20260905170507 30 0.0 0.0 0.00 0.00 0.00 23 1015.7
20260905165007 30 0.0 0.0 0.00 0.00 0.00 22 1015.6
20260905163507 31 0.0 0.0 0.00 0.00 0.00 21 1015.5
20260905162007 35 0.0 0.0 0.00 0.00 0.00 17 1015.5
20260905160508 36 0.0 0.0 0.00 0.00 0.00 16 1015.5
20260905155008 37 0.0 0.0 0.00 0.00 0.00 14 1015.5
20260905153507 36 0.0 0.0 0.00 0.00 0.00 14 1015.6
20260905152008 36 0.0 0.0 0.00 0.00 0.00 14 1015.6
20260905150508 37 0.0 0.0 0.00 0.00 0.00 13 1015.6
20260905145008 39 0.0 0.0 0.00 0.00 0.00 12 1015.7
20260905143508 39 0.0 0.0 0.00 0.00 0.00 12 1015.7
20260905142008 40 0.0 0.0 0.00 0.00 0.00 11 1015.8
20260905140508 39 0.0 0.0 0.00 0.00 0.00 11 1015.8
20260905135008 40 0.0 0.0 0.00 0.00 0.00 11 1016.0
20260905133508 40 0.0 0.0 0.00 0.00 0.00 12 1016.1
20260905132008 40 0.0 0.0 0.00 0.00 0.00 12 1016.2
20260905130508 40 0.0 0.0 0.00 0.00 0.00 11 1016.4
20260905125008 40 0.0 0.0 0.00 0.00 0.00 12 1016.6
20260905123508 40 0.0 0.0 0.00 0.00 0.00 12 1016.7
20260905122008 40 0.0 0.0 0.00 0.00 0.00 13 1017.0
20260905120508 40 0.0 0.0 0.00 0.00 0.00 13 1017.1
20260905115008 41 0.0 0.0 0.00 0.00 0.00 13 1017.4
20260905113508 40 0.0 0.0 0.00 0.00 0.00 14 1017.4
20260905112008 40 0.0 0.0 0.00 0.00 0.00 14 1017.4
20260905110508 40 0.0 0.0 0.00 0.00 0.00 14 1017.5
20260905105008 40 0.0 0.0 0.00 0.00 0.00 14 1017.7
20260905103508 40 0.0 0.0 0.00 0.00 0.00 14 1017.8
20260905102008 39 0.0 0.0 0.00 0.00 0.00 15 1017.9
20260905100508 39 0.0 0.0 0.00 0.00 0.00 15 1018.0
20260905095008 37 0.0 0.0 0.00 0.00 0.00 16 1018.1
20260905093508 38 0.0 0.0 0.00 0.00 0.00 16 1018.3
20260905092008 36 0.0 0.0 0.00 0.00 0.00 18 1018.5
20260905090508 38 0.0 0.0 0.00 0.00 0.00 17 1018.7
20260905085008 36 0.0 0.0 0.00 0.00 0.00 19 1018.8
20260905083508 35 0.0 0.0 0.00 0.00 0.00 21 1018.8
20260905082008 36 0.0 0.0 0.00 0.00 0.00 20 1018.9
20260905080508 35 0.0 0.0 0.00 0.00 0.00 21 1018.9
20260905075008 32 0.0 0.0 0.00 0.00 0.00 25 1018.9
20260905073508 31 0.0 0.0 0.00 0.00 0.00 27 1018.9
20260905072008 30 0.0 0.0 0.00 0.00 0.00 28 1019.0
20260905070508 28 0.0 0.0 0.00 0.00 0.00 31 1019.0
20260905065008 26 0.0 0.0 0.00 0.00 0.00 35 1019.0
20260905063508 25 0.0 0.0 0.00 0.00 0.00 36 1019.1
20260905062008 23 0.0 0.0 0.00 0.00 0.00 39 1019.0
20260905060508 23 0.0 0.0 0.00 0.00 0.00 39 1018.9
20260905055008 22 0.0 0.0 0.00 0.00 0.00 42 1018.9
20260905053508 22 0.0 0.0 0.00 0.00 0.00 43 1018.9
20260905052008 21 0.0 0.0 0.00 0.00 0.00 44 1018.9